Regional Weather Roundup
Issued by NWS

Home | Current Version | Previous Version | Text Only | Print | Product List | Glossary Off
Versions: 1 2 3 4 5 6 7 8 9 10 11 12 13 14 15 16 17 18 19 20 21 22 23 24 25 26 27 28 29 30 31 32 33 34 35 36 37 38 39 40 41 42 43 44 45 46 47 48 49 50

103
ASUS43 KLSX 242007
RWRMO

WEATHER SUMMARY FOR MISSOURI
NATIONAL WEATHER SERVICE SPRINGFIELD MO
200 PM CST FRI NOV 24 2017

NOTE: "FAIR" INDICATES FEW OR NO CLOUDS BELOW 12,000 FEET WITH NO
       SIGNIFICANT WEATHER AND/OR OBSTRUCTIONS TO VISIBILITY.
       CURRENT SKY AND/OR WEATHER CONDITIONS ARE NOT AVAILABLE FOR
       CHILLICOTHE AND FARMINGTON.

MOZ001>031-035>038-043-044-053-054-242100-
...NORTHERN AND WESTERN MISSOURI...

CITY           SKY/WX    TMP DP  RH WIND       PRES   REMARKS
KANSAS CTY INT PTSUNNY   71  38  29 SW23G29   29.55S
KANSAS C DTWN  SUNNY     73  38  27 SW21G28   29.55S
LEE`S SUMMIT   SUNNY     73  38  27 SW24G31   29.56F
ST JOSEPH      SUNNY     71  40  32 SW15      29.54R
CHILLICOTHE      N/A     75  39  27 SW14G22   29.51F
KIRKSVILLE     SUNNY     72  39  30 SW21G37   29.51F

$$
MOZ066>068-077>081-088>096-101>105-242100-
...SOUTHWEST MISSOURI...

CITY           SKY/WX    TMP DP  RH WIND       PRES   REMARKS
SPRINGFIELD    SUNNY     72  36  26 S23G30    29.71F
JOPLIN         SUNNY     74  36  25 S26G36    29.70F
BRANSON        PTSUNNY   73  32  21 SW12G21   29.77F

$$
MOZ032>034-039>042-045>050-055>058-069>072-242100-
...CENTRAL MISSOURI...

CITY           SKY/WX    TMP DP  RH WIND       PRES   REMARKS
COLUMBIA       SUNNY     74  36  25 SW24G31   29.60F
JEFFERSON CITY SUNNY     75  34  22 SW20G26   29.61F
ROLLA          SUNNY     72  35  25 SW17G30   29.67F
SEDALIA        LGT RAIN  75  40  28 SW17G36   29.60F
WHITEMAN AFB   CLOUDY    71  38  30 SW21G29   29.54F
WARRENSBURG    MOSUNNY   73  36  25 S24G30    29.58F
OSAGE BEACH    SUNNY     74  36  25 SW23G29   29.65F

$$
MOZ051-052-059>065-242100-
...EAST CENTRAL MISSOURI...

CITY           SKY/WX    TMP DP  RH WIND       PRES   REMARKS
ST LOUIS INTL  MOSUNNY   73  38  27 S17       29.65F
SPIRIT OF STL  MOSUNNY   74  36  25 SW13G26   29.63F
ST CHARLES     SUNNY     73  36  25 S17       29.63F

$$
MOZ072>076-082>087-097>100-106>115-242100-
...SOUTH CENTRAL AND SOUTHEAST MISSOURI...

CITY           SKY/WX    TMP DP  RH WIND       PRES   REMARKS
CAPE GIRARDEAU SUNNY     60  37  42 S15       29.81F
FARMINGTON     SUNNY     68  37  32 S14       29.73F
POPLAR BLUFF   SUNNY     65  35  33 SW17      29.81F
WEST PLAINS    SUNNY     69  32  25 S13G20    29.78F

$$



USA.gov is the U.S. government's official web portal to all federal, state and local government web resources and services.